M0ADS Weather Reports


time (UTC)temp
C
wind
direction
speed
KPH
gust
KPH
rain 1hr
cm
rain 24hr
cm
rain mn
cm
humidity
%
barometer
mb
20260506080837 8 34 0.0 6.4 0.00 0.00 0.00 71 1014.8
20260506072335 8 169 0.0 6.4 0.00 0.00 0.00 75 1014.8
20260506070835 8 158 0.0 6.4 0.00 0.00 0.00 74 1014.7
20260506060835 5 152 0.0 8.0 0.00 0.00 0.00 83 1014.7
20260506050835 3 204 0.0 0.0 0.00 0.00 0.00 85 1014.4
20260506043833 3 138 0.0 1.6 0.00 0.00 0.00 85 1014.5
20260506042333 3 138 0.0 1.6 0.00 0.00 0.00 85 1014.5
20260506040832 4 138 0.0 0.0 0.00 0.00 0.00 85 1014.4
20260506035332 4 138 0.0 0.0 0.00 0.00 0.00 84 1014.3
20260506033833 4 138 0.0 0.0 0.00 0.00 0.00 84 1014.4
20260506032333 4 138 0.0 0.0 0.00 0.00 0.00 83 1014.5
20260506030833 5 138 0.0 0.0 0.00 0.00 0.00 83 1014.5
20260506025332 5 138 0.0 1.6 0.00 0.00 0.00 82 1014.6
20260506023833 5 138 0.0 3.2 0.00 0.00 0.00 82 1014.5
20260506022332 5 145 0.0 6.4 0.00 0.00 0.00 81 1014.4
20260506020833 6 132 0.0 3.2 0.00 0.00 0.00 81 1014.6
20260506015331 6 132 0.0 3.2 0.00 0.00 0.00 81 1014.6
20260506013830 6 132 0.0 4.8 0.00 0.00 0.00 81 1014.8
20260506012331 6 132 0.0 3.2 0.00 0.00 0.00 81 1014.7
20260506010828 6 133 0.0 6.4 0.00 0.00 0.00 81 1014.8
20260506005326 6 109 0.0 6.4 0.00 0.00 0.00 81 1014.9
20260506003826 6 78 0.0 3.2 0.00 0.00 0.00 81 1014.9
20260506002327 6 317 0.0 4.8 0.00 0.00 0.00 80 1014.9
20260506000826 6 126 0.0 6.4 0.00 0.00 0.00 80 1015.0
20260505235327 6 90 0.0 4.8 0.00 0.00 0.00 80 1015.2
20260505233826 6 133 0.0 6.4 0.00 0.00 0.00 81 1015.2
20260505232326 6 133 0.0 3.2 0.00 0.00 0.00 80 1015.2
20260505230823 7 142 0.0 4.8 0.00 0.00 0.00 80 1015.3
20260505225324 7 145 0.0 4.8 0.00 0.00 0.00 80 1015.4
20260505223821 7 94 0.0 3.2 0.00 0.00 0.00 79 1015.4
20260505222321 7 57 0.0 6.4 0.00 0.00 0.00 78 1015.3
20260505220819 7 170 0.0 11.3 0.00 0.00 0.00 77 1015.3
20260505215319 7 95 0.0 6.4 0.00 0.00 0.00 77 1015.2
20260505213820 7 147 0.0 4.8 0.00 0.00 0.00 76 1015.3
20260505212317 7 146 0.0 6.4 0.00 0.00 0.00 76 1015.2
20260505210815 7 65 0.0 6.4 0.00 0.00 0.00 76 1015.2
20260505205315 7 86 0.0 6.4 0.00 0.00 0.00 76 1015.0
20260505203815 8 15 0.0 6.4 0.00 0.00 0.00 77 1014.9
20260505202314 8 100 0.0 4.8 0.00 0.00 0.00 78 1014.9
20260505200813 8 135 0.0 11.3 0.00 0.00 0.00 78 1014.9
20260505195313 8 148 0.0 6.4 0.00 0.00 0.00 78 1014.8
20260505193811 8 196 1.6 17.7 0.00 0.00 0.00 77 1014.6
20260505192311 8 153 1.6 8.0 0.00 0.00 0.00 78 1014.4
20260505190809 9 146 0.0 8.0 0.00 0.00 0.00 77 1014.3
20260505185308 9 192 0.0 8.0 0.00 0.00 0.00 76 1014.2
20260505183809 9 123 0.0 9.7 0.00 0.00 0.00 77 1014.1
20260505182307 10 119 1.6 9.7 0.00 0.00 0.00 76 1013.9
20260505180807 10 137 0.0 4.8 0.00 0.00 0.00 76 1013.7
20260505175305 10 190 0.0 11.3 0.00 0.00 0.00 76 1013.7
20260505173805 10 117 0.0 12.9 0.00 0.00 0.00 75 1013.7
20260505172306 11 134 0.0 6.4 0.00 0.00 0.00 75 1013.6
20260505170805 11 138 0.0 8.0 0.00 0.00 0.00 74 1013.6
20260505165306 11 38 0.0 6.4 0.00 0.00 0.00 73 1013.6
20260505163805 11 121 0.0 9.7 0.00 0.00 0.00 73 1013.6
20260505162306 11 136 0.0 11.3 0.00 0.00 0.00 71 1013.5
20260505160801 11 151 0.0 8.0 0.00 0.00 0.00 66 1013.4
20260505152256 12 159 0.0 8.0 0.00 0.00 0.00 62 1013.3
20260505150754 12 125 0.0 4.8 0.00 0.00 0.00 63 1013.2
20260505123749 13 279 0.0 4.8 0.00 0.03 0.00 59 1013.1
20260505122247 14 247 0.0 4.8 0.00 0.03 0.00 56 1013.1
20260505120748 14 229 0.0 4.8 0.00 0.03 0.00 57 1013.1
20260505115248 14 237 0.0 4.8 0.00 0.03 0.00 57 1013.1
20260505113748 14 261 0.0 6.4 0.00 0.03 0.00 56 1013.1
20260505112248 13 264 0.0 6.4 0.00 0.03 0.00 60 1013.3
20260505110748 14 218 1.6 4.8 0.00 0.03 0.00 60 1013.4
20260505100743 12 251 0.0 4.8 0.00 0.03 0.00 65 1013.4
20260505095244 12 228 0.0 9.7 0.00 0.03 0.00 65 1013.5
20260505093741 13 225 1.6 11.3 0.00 0.03 0.00 62 1013.5
20260505092241 13 43 0.0 6.4 0.00 0.03 0.00 63 1013.5
20260505090739 12 161 0.0 8.0 0.00 0.03 0.00 65 1013.6
20260505085239 12 161 0.0 6.4 0.00 0.03 0.00 65 1013.6
20260505083740 11 335 0.0 9.7 0.00 0.03 0.00 66 1013.7
20260505082239 12 117 0.0 6.4 0.00 0.03 0.00 67 1013.8